Вернуться в каталог

DELTA 1 DEB

АктивенSSO
NORAD 10758·DEBRIS·🇺🇸 United States

Запущен Jul 29, 1976 с Vandenberg Space Force Base

Loading…

Ближайшие Пролёты (ближайшие 24 часа)

TLE

СвежийSource: Space-Track

Эпоха: Sep 14, 2026, 09:05 UTC

1 10758U 76077BF  26257.37876519  .00000000  00000-0  43992-3 0  9996
2 10758 102.4768 208.0668 0156512  36.1735 116.8152 12.12870002219881

Отслеживайте DELTA 1 DEB в реальном времени с AllMySat

Download on the App Store